Location: Pandora
(40.9481°N, 83.9611°W)
Time: 10:28:38
(UTC-04:00)

X-37B - Visible Passes

Search period start: 20 September 2021 00:00
Search period end: 30 September 2021 00:00
Orbit: 381 x 393 km, 45.0° (Epoch: 29 August)

Date Brightness Start Highest point End Pass type
(mag) Time Alt. Az. Time Alt. Az. Time Alt. Az.
20 Sep 3.1 05:50:37 12° S 05:52:04 16° SE 05:54:03 10° ESE visible
21 Sep 1.2 06:27:29 14° SW 06:30:00 50° SSE 06:33:05 10° ENE visible
22 Sep 2.2 05:31:58 27° SE 05:31:58 27° SE 05:34:30 10° E visible
23 Sep 0.5 06:08:40 36° WSW 06:09:48 88° SSE 06:12:59 10° ENE visible
24 Sep 2.9 05:13:02 25° E 05:13:02 25° E 05:14:33 10° ENE visible
24 Sep 1.3 06:45:19 11° W 06:48:10 44° N 06:51:14 10° ENE visible
25 Sep 0.7 05:49:38 60° NNW 05:49:41 60° NNW 05:52:50 10° ENE visible
26 Sep 3.9 04:53:55 14° ENE 04:53:55 14° ENE 04:54:27 10° ENE visible
26 Sep 1.6 06:26:12 18° WNW 06:28:08 38° N 06:31:07 10° ENE visible
27 Sep 2.1 05:30:29 34° NNE 05:30:29 34° NNE 05:32:41 10° ENE visible
28 Sep 1.7 06:07:03 27° NW 06:08:07 37° N 06:11:05 10° ENE visible
29 Sep 3.3 05:11:21 20° NE 05:11:21 20° NE 05:12:35 10° ENE visible
29 Sep 1.2 06:43:38 11° WNW 06:46:34 51° NNE 06:49:40 10° E visible
